When you browse on this site, cookies collect data to enhance your experience and personalize the content and advertising you see.
Visit our Privacy Policy to learn more. By continuing to use the site, you agree to this use of cookies and data.
  • In Spain
  • List of Countries
  • For 7 days
  • Water Temperature
  • Weather Map
  • Weather Widgets
  • user-avatar
    Login

    Hourly Weather Mbandaka

    Today, 21 October, Monday

    Time Temperature Precipitation Wind Pressure Humidity
    00:00 +22°C° 0.6 mm 0 mps 731 mmHg 93%
    01:00 +22°C° 0 mm 0 mps 731 mmHg 95%
    02:00 +22°C° 1.6 mm 0 mps 731 mmHg 95%
    03:00 +24°C° 1.6 mm 1 mps 731 mmHg 96%
    04:00 +24°C° 1.6 mm 1 mps 731 mmHg 97%
    05:00 +24°C° 0.4 mm 1 mps 731 mmHg 96%
    06:00 +24°C° 0.4 mm 2 mps 732 mmHg 96%
    07:00 +24°C° 0.4 mm 2 mps 732 mmHg 96%
    08:00 +25°C° 0 mm 2 mps 732 mmHg 89%
    09:00 +27°C° 0 mm 2 mps 733 mmHg 82%
    10:00 +28°C° 0 mm 2 mps 733 mmHg 76%
    11:00 +29°C° 0.1 mm 2 mps 732 mmHg 71%
    12:00 +30°C° 0.1 mm 2 mps 731 mmHg 66%
    13:00 +31°C° 0.1 mm 2 mps 730 mmHg 62%
    14:00 +31°C° 0.6 mm 2 mps 729 mmHg 67%
    15:00 +30°C° 0.6 mm 1 mps 729 mmHg 73%
    16:00 +29°C° 0.6 mm 1 mps 728 mmHg 79%
    17:00 +26°C° 0 mm 0 mps 729 mmHg 81%
    18:00 +25°C° 0 mm 0 mps 729 mmHg 84%
    19:00 +24°C° 0 mm 0 mps 730 mmHg 87%
    20:00 +24°C° 0 mm 0 mps 730 mmHg 87%
    21:00 +24°C° 0 mm 0 mps 731 mmHg 87%
    22:00 +23°C° 0 mm 0 mps 731 mmHg 87%
    23:00 +23°C° 0.4 mm 0 mps 730 mmHg 89%

    Tomorrow, 22 October, Tuesday

    Time Temperature Precipitation Wind Pressure Humidity
    00:00 +23°C° 0.4 mm 0 mps 730 mmHg 91%
    01:00 +24°C° 0.4 mm 1 mps 730 mmHg 93%
    02:00 +24°C° 0.3 mm 1 mps 730 mmHg 94%
    03:00 +24°C° 0.3 mm 1 mps 730 mmHg 95%
    04:00 +24°C° 0.3 mm 1 mps 730 mmHg 96%
    05:00 +24°C° 0.3 mm 1 mps 730 mmHg 95%
    06:00 +24°C° 0.3 mm 1 mps 731 mmHg 95%
    07:00 +23°C° 0.3 mm 0 mps 732 mmHg 94%
    08:00 +23°C° 0 mm 0 mps 732 mmHg 92%
    09:00 +24°C° 0 mm 0 mps 732 mmHg 90%
    10:00 +24°C° 0 mm 0 mps 732 mmHg 88%
    11:00 +25°C° 0.2 mm 0 mps 731 mmHg 87%
    12:00 +27°C° 0.2 mm 1 mps 730 mmHg 86%
    13:00 +27°C° 0.2 mm 1 mps 729 mmHg 85%
    14:00 +27°C° 0.1 mm 1 mps 729 mmHg 83%
    15:00 +27°C° 0.1 mm 2 mps 728 mmHg 82%
    16:00 +27°C° 0.1 mm 2 mps 728 mmHg 80%
    17:00 +27°C° 0 mm 2 mps 729 mmHg 83%
    18:00 +26°C° 0 mm 1 mps 729 mmHg 87%
    19:00 +25°C° 0 mm 1 mps 730 mmHg 90%
    20:00 +25°C° 0 mm 1 mps 730 mmHg 91%
    21:00 +25°C° 0 mm 1 mps 730 mmHg 92%
    22:00 +24°C° 0 mm 1 mps 730 mmHg 93%
    23:00 +24°C° 0 mm 1 mps 729 mmHg 92%

    Day after tomorrow, 23 October, Wednesday

    Time Temperature Precipitation Wind Pressure Humidity
    00:00 +24°C° 0 mm 1 mps 729 mmHg 92%
    01:00 +24°C° 0 mm 1 mps 729 mmHg 92%
    02:00 +24°C° 0 mm 1 mps 729 mmHg 92%
    03:00 +24°C° 0 mm 1 mps 729 mmHg 92%
    04:00 +24°C° 0 mm 1 mps 729 mmHg 93%
    05:00 +24°C° 0 mm 1 mps 729 mmHg 91%
    06:00 +24°C° 0 mm 1 mps 730 mmHg 90%
    07:00 +24°C° 0 mm 1 mps 731 mmHg 89%
    08:00 +25°C° 0 mm 1 mps 731 mmHg 84%
    09:00 +26°C° 0 mm 1 mps 731 mmHg 78%
    10:00 +26°C° 0 mm 0 mps 731 mmHg 73%
    11:00 +29°C° 0 mm 1 mps 730 mmHg 66%
    12:00 +30°C° 0 mm 1 mps 729 mmHg 60%
    13:00 +32°C° 0 mm 1 mps 728 mmHg 53%
    14:00 +32°C° 0 mm 1 mps 728 mmHg 54%
    15:00 +31°C° 0 mm 1 mps 727 mmHg 55%
    16:00 +29°C° 0 mm 0 mps 727 mmHg 55%
    17:00 +28°C° 0 mm 0 mps 727 mmHg 62%
    18:00 +26°C° 0 mm 0 mps 728 mmHg 69%
    19:00 +24°C° 0 mm 0 mps 728 mmHg 75%
    20:00 +24°C° 0 mm 0 mps 729 mmHg 76%
    21:00 +24°C° 0 mm 0 mps 729 mmHg 77%
    22:00 +26°C° 0 mm 1 mps 729 mmHg 77%
    23:00 +26°C° 0 mm 1 mps 729 mmHg 77%

    24 October, Thursday

    Time Temperature Precipitation Wind Pressure Humidity
    00:00 +26°C° 0 mm 1 mps 729 mmHg 77%
    01:00 +26°C° 0 mm 1 mps 729 mmHg 77%
    02:00 +25°C° 0 mm 1 mps 729 mmHg 80%
    03:00 +23°C° 0 mm 0 mps 729 mmHg 82%
    04:00 +23°C° 0 mm 0 mps 729 mmHg 85%
    05:00 +23°C° 0.9 mm 0 mps 730 mmHg 87%
    06:00 +25°C° 0.9 mm 1 mps 730 mmHg 90%
    07:00 +25°C° 0.9 mm 1 mps 731 mmHg 93%
    08:00 +26°C° 2.3 mm 1 mps 731 mmHg 91%
    09:00 +27°C° 2.3 mm 1 mps 731 mmHg 90%
    10:00 +28°C° 2.3 mm 2 mps 731 mmHg 88%
    11:00 +29°C° 2.1 mm 1 mps 730 mmHg 85%
    12:00 +29°C° 2.1 mm 1 mps 729 mmHg 83%
    13:00 +29°C° 2.1 mm 1 mps 729 mmHg 80%
    14:00 +29°C° 1 mm 1 mps 728 mmHg 80%
    15:00 +29°C° 1 mm 1 mps 728 mmHg 81%
    16:00 +29°C° 1 mm 1 mps 728 mmHg 81%
    17:00 +28°C° 0.2 mm 1 mps 728 mmHg 85%
    18:00 +27°C° 0.2 mm 1 mps 729 mmHg 89%
    19:00 +25°C° 0.2 mm 1 mps 729 mmHg 92%
    20:00 +25°C° 0.4 mm 1 mps 730 mmHg 93%
    21:00 +25°C° 0.4 mm 1 mps 730 mmHg 94%
    22:00 +23°C° 0.4 mm 0 mps 731 mmHg 94%
    23:00 +24°C° 0.2 mm 1 mps 730 mmHg 95%

    25 October, Friday

    Time Temperature Precipitation Wind Pressure Humidity
    00:00 +24°C° 0.2 mm 1 mps 730 mmHg 96%
    01:00 +24°C° 0.2 mm 1 mps 730 mmHg 96%
    02:00 +24°C° 0 mm 1 mps 730 mmHg 97%
    03:00 +24°C° 0 mm 1 mps 730 mmHg 97%
    04:00 +24°C° 0 mm 1 mps 730 mmHg 97%
    05:00 +24°C° 0 mm 1 mps 730 mmHg 96%
    06:00 +25°C° 0 mm 1 mps 731 mmHg 95%
    07:00 +25°C° 0 mm 1 mps 731 mmHg 93%
    08:00 +27°C° 0.2 mm 1 mps 731 mmHg 87%
    09:00 +28°C° 0.2 mm 1 mps 732 mmHg 80%
    10:00 +30°C° 0.2 mm 1 mps 732 mmHg 73%
    11:00 +29°C° 1.9 mm 1 mps 731 mmHg 77%
    12:00 +29°C° 1.9 mm 1 mps 729 mmHg 81%
    13:00 +29°C° 1.9 mm 1 mps 728 mmHg 84%
    14:00 +29°C° 1.7 mm 1 mps 728 mmHg 86%
    15:00 +29°C° 1.7 mm 1 mps 728 mmHg 88%
    16:00 +28°C° 1.7 mm 1 mps 728 mmHg 89%
    17:00 +27°C° 0.2 mm 1 mps 728 mmHg 91%
    18:00 +27°C° 0.2 mm 1 mps 729 mmHg 92%
    19:00 +26°C° 0.2 mm 1 mps 729 mmHg 94%
    20:00 +25°C° 0.2 mm 1 mps 730 mmHg 94%
    21:00 +25°C° 0.2 mm 1 mps 730 mmHg 94%
    22:00 +25°C° 0.2 mm 1 mps 730 mmHg 94%
    23:00 +25°C° 0.2 mm 1 mps 730 mmHg 95%

    26 October, Saturday

    Time Temperature Precipitation Wind Pressure Humidity
    00:00 +25°C° 0.2 mm 1 mps 730 mmHg 95%
    01:00 +24°C° 0.2 mm 1 mps 730 mmHg 95%
    02:00 +24°C° 0.3 mm 1 mps 730 mmHg 96%
    03:00 +24°C° 0.3 mm 1 mps 730 mmHg 96%
    04:00 +24°C° 0.3 mm 1 mps 730 mmHg 96%
    05:00 +24°C° 0.1 mm 1 mps 730 mmHg 96%
    06:00 +24°C° 0.1 mm 1 mps 731 mmHg 95%
    07:00 +24°C° 0.1 mm 1 mps 732 mmHg 95%
    08:00 +25°C° 0.4 mm 1 mps 732 mmHg 94%
    09:00 +25°C° 0.4 mm 1 mps 732 mmHg 94%
    10:00 +26°C° 0.4 mm 1 mps 732 mmHg 93%
    11:00 +25°C° 0.8 mm 1 mps 731 mmHg 93%
    12:00 +25°C° 0.8 mm 1 mps 731 mmHg 94%
    13:00 +25°C° 0.8 mm 1 mps 730 mmHg 94%
    14:00 +25°C° 0.2 mm 1 mps 730 mmHg 94%
    15:00 +25°C° 0.2 mm 1 mps 729 mmHg 94%
    16:00 +25°C° 0.2 mm 1 mps 728 mmHg 95%
    17:00 +24°C° 0 mm 1 mps 729 mmHg 95%
    18:00 +22°C° 0 mm 0 mps 729 mmHg 96%
    19:00 +22°C° 0 mm 0 mps 730 mmHg 96%
    20:00 +22°C° 0 mm 0 mps 730 mmHg 97%
    21:00 +22°C° 0 mm 0 mps 730 mmHg 97%
    22:00 +22°C° 0 mm 0 mps 730 mmHg 97%
    23:00 +22°C° 0 mm 0 mps 730 mmHg 97%

    27 October, Sunday

    Time Temperature Precipitation Wind Pressure Humidity
    00:00 +21°C° 0 mm 0 mps 730 mmHg 97%
    01:00 +21°C° 0 mm 0 mps 729 mmHg 97%
    02:00 +21°C° 0 mm 0 mps 729 mmHg 97%
    03:00 +21°C° 0 mm 0 mps 729 mmHg 97%
    04:00 +21°C° 0 mm 0 mps 730 mmHg 97%
    05:00 +21°C° 0.5 mm 0 mps 730 mmHg 97%
    06:00 +22°C° 0.5 mm 0 mps 731 mmHg 97%
    07:00 +22°C° 0.5 mm 0 mps 731 mmHg 97%
    08:00 +22°C° 0.6 mm 0 mps 732 mmHg 96%
    09:00 +24°C° 0.6 mm 1 mps 732 mmHg 95%
    10:00 +25°C° 0.6 mm 1 mps 732 mmHg 95%
    11:00 +25°C° 1.3 mm 1 mps 731 mmHg 95%
    12:00 +23°C° 1.3 mm 0 mps 731 mmHg 95%
    13:00 +23°C° 1.3 mm 0 mps 730 mmHg 95%
    14:00 +23°C° 1.8 mm 0 mps 730 mmHg 96%
    15:00 +24°C° 1.8 mm 1 mps 730 mmHg 96%
    16:00 +24°C° 1.8 mm 1 mps 729 mmHg 97%
    17:00 +24°C° 0.3 mm 1 mps 730 mmHg 97%
    18:00 +24°C° 0.3 mm 1 mps 730 mmHg 97%
    19:00 +23°C° 0.3 mm 2 mps 730 mmHg 97%
    20:00 +23°C° 0 mm 1 mps 730 mmHg 97%
    21:00 +23°C° 0 mm 1 mps 730 mmHg 97%
    22:00 +23°C° 0 mm 1 mps 730 mmHg 97%
    23:00 +23°C° 0 mm 1 mps 730 mmHg 97%
    Show more